Location: Pilipovskiye Korichintsy
(49.1833°N, 27.4667°E)
Time: 12:45:01
(UTC+00:00)

Cosmos 407 Rocket - Pass Details

Date: 14 July 2020
Orbit: 744 x 786 km, 74.0° (Epoch: 07 August)

Event Time Altitude Azimuth Distance (km) Brightness Sun altitude
Exits shadow 00:55:14 13° 236° (SW) 2,150 5.2 -10.8°
Maximum altitude 00:59:41 40° 302° (WNW) 1,161 4.4 -10.4°
Drops below altitude 10° 01:04:43 10° 12° (NNE) 2,357 7.1 -9.9°
Sets 01:07:16 0° 20° (NNE) 3,286 8.3 -9.6°
